TimeMDT,TemperatureF,Dew PointF,Humidity,Sea Level PressureIn,VisibilityMPH,Wind Direction,Wind SpeedMPH,Gust SpeedMPH,PrecipitationIn,Events,Conditions,WindDirDegrees,DateUTC
12:53 AM,55.0,19.9,25,29.86,10.0,WSW,6.9,-,N/A,,Clear,250,2012-10-06 06:53:00
1:53 AM,52.0,23.0,32,29.87,10.0,Calm,Calm,-,N/A,,Clear,0,2012-10-06 07:53:00
2:53 AM,48.9,23.0,36,29.88,10.0,Calm,Calm,-,N/A,,Clear,0,2012-10-06 08:53:00
3:53 AM,45.0,23.0,42,29.89,10.0,NE,3.5,-,N/A,,Clear,40,2012-10-06 09:53:00
4:53 AM,46.9,21.9,37,29.88,10.0,SW,3.5,-,N/A,,Clear,220,2012-10-06 10:53:00
5:53 AM,45.0,19.9,37,29.91,10.0,SW,5.8,-,N/A,,Clear,230,2012-10-06 11:53:00
6:53 AM,48.0,18.0,30,29.91,10.0,WSW,5.8,-,N/A,,Clear,240,2012-10-06 12:53:00
8:53 AM,50.0,21.9,33,29.95,10.0,East,4.6,-,N/A,,Clear,90,2012-10-06 14:53:00
9:53 AM,59.0,18.0,20,29.92,10.0,WSW,12.7,-,N/A,,Clear,250,2012-10-06 15:53:00
10:53 AM,62.1,18.0,18,29.88,10.0,West,15.0,29.9,N/A,,Clear,260,2012-10-06 16:53:00
11:53 AM,66.0,10.0,11,29.87,10.0,WNW,19.6,38.0,N/A,,Clear,290,2012-10-06 17:53:00
12:53 PM,66.9,9.0,10,29.86,10.0,West,20.7,34.5,N/A,,Clear,270,2012-10-06 18:53:00
1:53 PM,66.9,10.0,11,29.84,10.0,WSW,21.9,32.2,N/A,,Clear,240,2012-10-06 19:53:00
2:53 PM,66.9,-0.0,7,29.84,10.0,West,23.0,31.1,N/A,,Clear,270,2012-10-06 20:53:00
3:53 PM,66.9,-2.0,6,29.85,10.0,West,19.6,34.5,N/A,,Clear,270,2012-10-06 21:53:00
4:53 PM,66.0,-2.9,6,29.84,10.0,West,26.5,32.2,N/A,,Clear,260,2012-10-06 22:53:00
5:53 PM,64.0,-2.9,7,29.86,10.0,West,24.2,34.5,N/A,,Clear,280,2012-10-06 23:53:00
6:53 PM,59.0,3.0,11,29.89,10.0,WNW,11.5,-,N/A,,Clear,300,2012-10-07 00:53:00
7:53 PM,55.9,3.9,12,29.91,10.0,WNW,8.1,-,N/A,,Clear,290,2012-10-07 01:53:00
8:53 PM,55.0,5.0,13,29.92,10.0,West,6.9,-,N/A,,Clear,280,2012-10-07 02:53:00
9:53 PM,48.9,3.9,16,29.91,10.0,Variable,3.5,-,N/A,,Clear,0,2012-10-07 03:53:00
11:53 PM,46.9,5.0,18,29.88,10.0,West,3.5,-,N/A,,Mostly Cloudy,260,2012-10-07 05:53:00